Regional Weather Roundup
Issued by NWS Cleveland, OH

Home | Current Version | Previous Version | Text Only | Print | Product List | Glossary On
Versions: 1 2 3 4 5 6 7 8 9 10 11 12 13 14 15 16 17 18 19 20 21 22 23 24 25 26 27 28 29 30 31 32 33 34 35 36 37 38 39 40 41 42 43 44 45 46 47 48 49 50
000
ASUS41 KCLE 181212
RWRCLE
OHIO REGIONAL WEATHER ROUNDUP
NATIONAL WEATHER SERVICE WILMINGTON, OH
800 AM EDT SAT AUG 18 2018

NOTE: "FAIR" INDICATES FEW OR NO CLOUDS BELOW 12,000 FEET WITH NO
SIGNIFICANT WEATHER AND/OR OBSTRUCTIONS TO VISIBILITY.

OHZ001>008-015>018-024>027-034-035-043-044-181300-
   NORTHWEST OHIO

CITY           SKY/WX    TMP DP  RH WIND       PRES   REMARKS
DEFIANCE       FOG       67  67 100 N7        29.99S VSB 1/4
FINDLAY        FOG       69  68  96 NW5       29.98S VSB 1/4
TOLEDO EXPRESS CLOUDY    68  66  93 N3        29.98S FOG
TOLEDO EXEC    FAIR      69  69 100 NW5       29.98S FOG
LIMA           FOG       67  67 100 N5        29.99R VSB 1/4
$$

OHZ009>014-019>023-028>033-038-089-181300-
   NORTHEAST OHIO

CITY           SKY/WX    TMP DP  RH WIND       PRES   REMARKS
CLE-HOPKINS    LGT RAIN  71  69  93 SW6       29.97S
CLE-LAKEFRONT  CLOUDY    73  68  84 N6        29.93S
CUY CO. ARPT   LGT RAIN  73  70  88 N6        29.95R
LORAIN-ELYRIA  CLOUDY    69  65  86 W6        29.97R FOG
ASHTABULA      LGT RAIN  68  68 100 E5        29.95S
AKRON-CANTON   FOG       68  66  93 SW7       29.97S VSB 1/2
WOOSTER        FOG       67  67 100 W6        29.98S VSB 1/2
MANSFIELD      FOG       68  68 100 CALM      29.99R VSB 1/4
YOUNGSTOWN     FOG       68  68 100 W6        29.96R VSB 1
$$

OHZ042-051>053-060>062-070>072-077>081-181300-
  SOUTHWEST OHIO

CITY           SKY/WX    TMP DP  RH WIND       PRES   REMARKS
CINC-COVINGTON PTSUNNY   71  71 100 CALM      29.98S FOG
CINC-LUNKEN    PTSUNNY   70  70 100 CALM      29.97F FOG
HAMILTON       FAIR      72  71  97 CALM      29.98S FOG
DAYTON         FOG       69  69 100 W3        30.00R VSB 1/4
WRIGHT-PAT AFB PTSUNNY   70  69  98 CALM      29.98R FOG
DAYTON GENERAL CLOUDY    72  69  90 CALM      29.98S
WILMINGTON     RAIN      69  69 100 S5        29.98S FOG
$$

OHZ036-037-039>041-045>050-054>059-063>069-073>076-082>088-181300-
  CENTRAL AND SOUTHEAST OHIO

CITY           SKY/WX    TMP DP  RH WIND       PRES   REMARKS
COLUMBUS       CLOUDY    72  70  93 N7        29.97R FOG
OSU AIRPORT    CLOUDY    71  70  96 N6        29.98S FOG
BOLTON FIELD   CLOUDY    70  70 100 CALM      29.99R FOG
RICKENBACK AFB CLOUDY    69  69 100 CALM      29.97S
NEWARK         CLOUDY    72  70  93 N3        29.97S FOG
MARION         FOG       67  67 100 NW6       29.99S VSB<1/4
LANCASTER      PTSUNNY   71  70  96 CALM      29.98R
ZANESVILLE     PTSUNNY   72  69  90 W3        29.97S
NEW PHILLY     PTSUNNY   71  69  93 CALM      29.98S
$$



USA.gov is the U.S. government's official web portal to all federal, state and local government web resources and services.